User: anonymous   Login
Location: Unspecified
(0.0000°N, 0.0000°E)
Time: 07:16:25
(UTC+02:00)
Language:

ARIANE 5 R/B - Orbit

View from above orbital plane
View from above orbital plane
View from above satellite
View from above satellite

Ground track
Ground track

The orbit data is extracted from the following two-line orbital elements,

1 28787U 05028B   17174.28950567 -.00000085 +00000-0 +51997-4 0  9998
2 28787 007.3194 034.1223 7168361 205.5732 007.9162 02.26564796098222
Epoch (UTC): 23 June 2017 06:56:53
Eccentricity: 0.7168361
inclination: 7.3194°
perigee height: 556 km
apogee height: 35662 km
right ascension of ascending node: 34.1223°
argument of perigee: 205.5732°
revolutions per day: 2.26564796
mean anomaly at epoch: 7.9162°
orbit number at epoch: 9822

The dashed part of the orbit path shows where the satellite is in the earth's shadow,  

DLR